Simultaneous Nadir Overpasses (SNOs) Predictions

Prediction of SNOs between METOP-C and LANDSAT-8 Satellite Orbit:

Table of predicted SNOs for the next 14.0 days since TLE Epoch: 11/18/2023
Index Date (METOP-C) Time (METOP-C) Lat,Lon (METOP-C) SZA (METOP-C ) Date (LANDSAT-8) Time (LANDSAT-8) Lat,Lon (LANDSAT-8) SZA (LANDSAT-8 ) Distance(km) Time Diff (sec)
1 11/19/2023 01:32:27 81.13,-163.15 102.81 11/19/2023 01:33:11 81.13,-163.30 102.81 2.58 44
2 11/19/2023 02:23:08 -81.14, 4.46 77.15 11/19/2023 02:22:37 -81.15, 4.63 77.14 2.99 31
3 11/21/2023 21:06:52 81.12, -97.00 103.39 11/21/2023 21:07:28 81.11, -97.12 103.39 2.11 36
4 11/21/2023 21:57:32 -81.14, 70.98 76.52 11/21/2023 21:56:54 -81.13, 70.84 76.56 2.57 38
5 11/24/2023 16:41:14 81.14, -30.16 104.01 11/24/2023 16:41:42 81.13, -30.35 104.01 3.29 28
6 11/24/2023 17:31:54 -81.16, 137.80 75.90 11/24/2023 17:31:08 -81.16, 137.62 75.94 3.03 46
7 11/27/2023 12:15:39 81.12, 35.86 104.48 11/27/2023 12:15:58 81.12, 35.89 104.49 0.47 19
8 11/27/2023 13:06:19 -81.14,-156.20 75.44 11/27/2023 13:05:24 -81.15,-156.11 75.45 1.52 55
9 11/30/2023 07:50:03 81.12, 102.21 104.93 11/30/2023 07:50:13 81.12, 102.35 104.95 2.45 10



Historial Predications of SNOs between METOP-C and LANDSAT-8
